Theta_e
314 315 318 318 319 308 314 315 310 312 318 314 310 311 313 311 308 307 314 311 315 320 320 322 325 326 325 327 330 330 332 334 337 335 336 338 339 342 343 342 343 345 344 345 345 345 345 345 345 346 347 346 347 347 347 350 352 355 354 360 355 354 354
313 317 317 318 318 319 317 310 315 320 320 317 313 306 308 307 303 305 310 307 309 310 307 320 322 322 323 326 328 330 332 334 335 335 336 338 339 341 343 343 345 346 346 346 345 345 345 344 344 345 347 347 347 348 351 351 352 355 356 356 354 351 351
313 314 314 314 318 320 315 317 321 313 307 305 312 307 300 301 302 306 307 308 308 311 311 315 316 318 322 325 327 329 331 332 334 335 337 339 340 341 342 342 344 345 346 346 347 346 346 346 346 345 345 346 347 348 352 354 354 354 357 357 356 352 350
311 312 311 306 311 317 319 320 316 319 315 310 307 309 310 309 304 303 304 306 307 312 313 314 315 319 323 325 326 327 330 332 332 334 336 339 340 340 341 342 343 345 346 347 347 347 346 346 346 346 346 346 345 348 354 356 355 358 362 361 359 356 352
310 305 310 309 313 311 312 313 312 314 314 316 313 311 309 306 305 305 305 303 308 314 317 317 318 319 323 325 328 329 329 331 332 334 336 340 342 341 342 342 343 344 346 346 347 348 348 348 348 349 347 347 347 349 354 358 355 355 360 361 361 360 358
304 307 313 314 314 316 315 313 312 314 311 308 303 302 312 310 307 304 304 303 311 315 320 320 321 323 324 326 328 329 330 330 334 335 337 344 345 344 344 342 342 343 346 345 346 347 347 347 347 347 347 348 347 350 353 358 360 359 359 361 362 363 363
306 310 313 315 314 313 313 314 314 316 316 314 309 300 306 310 310 311 310 306 309 319 322 322 322 325 325 328 329 327 327 332 335 338 342 348 349 344 343 342 342 344 346 346 345 348 348 347 348 348 349 349 349 350 353 359 360 362 363 365 368 367 364
309 312 313 313 313 311 310 312 314 312 310 312 311 310 312 308 311 307 307 305 311 317 326 327 325 328 326 329 329 334 331 332 338 342 346 351 350 346 344 344 343 346 347 347 348 348 348 349 351 351 352 354 350 350 354 358 362 364 366 367 368 367 364
303 305 309 309 312 311 308 310 313 314 313 312 313 313 316 309 309 310 308 303 307 319 328 328 327 324 326 327 328 334 334 338 340 344 351 353 353 351 344 345 347 350 348 347 351 351 354 354 354 356 356 358 356 356 356 358 363 364 366 368 368 367 365
295 295 297 300 304 306 310 312 312 314 313 312 310 307 312 304 310 311 308 307 317 320 325 321 321 321 328 330 329 331 336 338 341 345 350 353 353 352 351 350 353 352 353 354 356 356 357 356 359 361 363 361 359 358 363 364 365 365 366 366 367 365 365
302 305 308 311 312 310 307 310 311 311 313 313 312 312 309 307 311 310 314 312 314 315 316 318 319 321 321 323 329 331 333 338 344 349 350 351 353 353 352 354 355 357 357 357 358 360 359 358 360 360 359 361 361 363 364 364 367 367 368 366 367 366 365
306 308 308 310 311 308 310 309 310 312 311 311 311 309 307 316 310 306 316 319 313 315 317 316 319 320 321 324 330 332 337 341 343 345 348 350 352 353 354 354 355 355 354 356 357 357 358 358 358 358 359 360 362 364 364 366 365 365 365 366 366 366 366
307 308 308 309 309 308 308 309 309 308 310 312 311 312 314 314 309 306 315 319 316 317 317 317 320 322 322 324 330 334 338 340 345 346 346 346 349 351 351 352 353 352 353 355 355 355 358 358 358 361 363 365 367 368 368 368 369 368 369 367 367 366 367
306 307 308 308 307 308 308 308 308 309 309 309 310 311 314 315 314 314 314 319 317 318 319 320 323 327 325 329 333 334 336 338 342 343 344 344 347 346 348 350 351 353 354 355 356 356 356 359 361 363 364 364 365 365 365 366 366 367 368 367 366 365 363
305 307 308 308 308 307 306 308 309 309 310 309 310 310 311 313 314 315 314 314 314 321 324 326 330 331 331 335 332 330 335 337 340 342 342 346 346 348 350 351 351 353 353 354 354 356 358 360 363 364 364 365 364 364 363 364 365 366 366 363 362 361 359
304 307 307 307 308 307 306 307 308 309 308 307 309 309 311 311 312 314 313 312 313 320 327 333 337 332 330 330 333 333 333 334 339 341 345 344 346 348 350 351 352 352 353 355 358 360 362 362 362 362 362 361 361 360 362 362 362 363 362 360 358 356 357
303 307 308 307 307 306 304 305 308 309 310 311 313 313 315 315 315 314 312 313 319 328 330 324 326 325 331 330 328 333 334 337 338 341 339 342 342 343 349 352 352 353 356 359 360 360 361 361 361 361 361 360 359 359 359 359 359 358 357 356 355 354 353
304 307 307 308 304 298 300 312 314 313 311 312 311 311 314 317 318 316 318 319 327 322 325 322 326 326 329 330 335 339 339 337 337 337 338 341 343 345 348 351 355 358 358 357 358 359 359 360 361 361 361 358 357 358 359 360 357 356 355 353 352 350 350
303 307 307 302 297 299 315 319 321 320 320 322 319 318 319 319 319 318 319 323 325 324 323 328 331 336 335 335 335 337 339 340 338 338 340 343 343 346 351 353 353 356 356 357 358 358 358 358 358 358 357 357 356 357 356 354 355 353 352 351 350 350 348
308 306 304 296 299 313 316 318 321 325 322 323 319 315 318 320 320 320 320 321 329 332 332 333 337 338 338 339 341 342 342 341 340 340 342 344 348 349 350 351 354 354 355 356 356 356 357 357 357 356 355 355 354 353 354 353 352 351 350 348 347 346 345
303 304 303 302 312 309 314 315 318 319 319 319 315 309 313 318 320 322 322 324 328 331 335 336 338 339 340 340 340 341 342 343 341 342 343 348 348 349 352 353 352 355 356 356 356 357 358 357 356 354 354 353 352 351 350 349 349 348 346 345 344 343 342
309 304 301 302 302 300 307 316 326 327 328 326 326 321 316 319 319 320 322 325 328 335 337 337 336 339 334 329 337 340 342 345 344 345 346 348 350 350 350 354 355 356 356 355 356 354 354 353 353 353 353 351 350 348 346 346 346 344 343 341 341 341 340
308 306 301 300 299 303 312 316 323 328 326 324 330 316 308 326 329 329 330 328 332 335 337 336 338 333 322 328 340 342 343 345 347 347 349 350 351 352 354 353 353 353 354 353 352 351 350 348 350 351 350 349 346 344 344 343 342 341 339 339 339 338 338
308 306 303 301 305 307 314 318 324 324 329 324 321 304 305 320 328 329 331 330 333 337 340 340 339 329 321 335 339 343 345 345 346 348 348 350 351 352 351 352 352 352 351 349 348 347 347 347 348 348 346 344 343 341 339 340 338 337 337 338 338 339 339
306 306 306 307 309 317 321 322 325 327 326 324 309 301 315 326 329 330 333 334 337 340 340 342 339 341 345 343 343 345 346 345 346 348 350 350 350 349 349 348 349 348 347 345 344 344 345 345 343 343 342 341 340 340 338 337 336 336 337 338 338 338 338
305 307 304 305 309 321 322 325 324 327 319 309 307 323 324 331 332 333 334 335 339 340 343 341 342 345 344 344 344 343 345 346 348 348 348 348 348 349 348 347 345 344 343 343 343 342 343 342 341 341 341 340 338 338 337 335 336 337 338 339 338 337 336
307 309 307 304 297 319 324 324 323 324 318 318 327 330 333 330 333 333 337 338 340 342 341 342 343 344 343 342 342 343 344 345 345 346 346 346 345 345 345 344 343 341 340 339 338 339 338 338 339 339 340 338 337 336 335 335 336 338 337 337 336 335 334
307 306 302 302 313 325 325 324 318 324 329 329 332 327 331 334 335 336 337 340 341 342 343 343 344 343 342 342 342 342 344 345 346 346 346 346 345 342 340 340 340 340 339 338 338 340 339 339 340 340 340 338 337 336 334 336 335 336 336 335 335 333 333
311 308 312 321 325 325 326 326 327 329 331 332 331 331 329 332 334 337 338 339 341 344 346 346 344 341 341 341 341 340 341 343 343 343 343 342 340 340 339 338 340 340 339 338 337 338 338 339 340 341 340 337 336 334 335 337 336 335 334 334 333 332 331
324 324 322 323 325 327 327 326 328 327 328 331 330 331 332 335 337 337 340 340 345 348 348 343 343 341 341 341 341 340 340 341 342 342 341 340 342 340 340 340 340 339 338 338 338 337 338 339 338 339 338 336 334 334 335 335 335 334 333 332 332 331 331
314 306 325 323 324 326 327 327 329 331 331 332 332 334 336 336 335 340 343 347 348 348 347 345 343 341 342 341 342 343 342 341 340 340 339 340 339 339 339 339 339 337 337 335 335 336 335 337 336 335 334 333 335 336 336 334 333 333 333 331 330 330 330
314 317 322 325 325 326 328 328 329 329 332 335 337 336 337 339 339 343 346 347 347 347 345 345 344 342 343 342 342 342 341 340 339 338 338 339 339 339 339 338 337 337 336 335 334 334 334 334 335 334 333 333 334 334 333 333 333 332 331 330 329 329 329
317 322 326 325 326 326 328 330 332 333 334 335 339 338 336 337 340 344 345 347 347 347 346 346 345 343 344 344 344 343 342 340 339 340 340 341 340 338 337 337 337 336 336 336 336 335 334 335 335 334 333 333 333 332 332 333 333 330 329 329 330 329 329
315 316 319 322 320 318 324 326 329 331 333 336 337 336 336 337 342 344 344 347 349 349 349 349 346 345 344 345 345 342 342 340 339 340 340 340 338 338 339 339 339 339 339 337 336 335 335 335 335 334 333 333 333 332 332 332 332 330 329 329 329 328 329
313 316 319 322 324 326 329 328 330 332 333 335 336 335 336 339 343 346 346 347 349 349 348 347 347 347 346 345 345 342 339 339 341 343 343 340 339 339 340 338 338 338 337 337 336 335 335 335 333 332 332 330 331 331 331 331 331 330 330 328 328 328 328
318 317 318 322 324 323 326 329 331 331 333 334 335 336 338 340 342 344 346 348 347 346 347 348 347 348 346 346 344 342 342 344 344 344 343 341 340 339 339 339 338 337 336 336 335 334 335 333 332 332 330 330 329 330 330 330 331 331 330 329 328 327 328
316 320 322 324 328 331 331 332 332 332 334 332 334 336 339 339 340 343 344 344 345 343 342 344 349 348 347 346 345 344 343 344 344 342 341 338 336 336 337 338 337 336 336 335 335 335 334 333 332 330 329 329 329 329 330 330 331 330 329 329 329 329 328
Wind_Speed
8 8 10 12 9 8 6 6 7 4 2 6 6 8 4 6 5 4 2 4 5 2 7 6 7 7 8 10 12 12 11 12 15 15 17 18 17 17 16 16 15 17 16 16 15 15 15 16 15 15 15 15 14 13 12 12 11 10 11 10 11 11 11
10 7 3 5 10 10 1 5 3 5 1 5 6 5 4 6 3 3 5 1 1 3 7 2 6 8 9 11 12 12 12 13 14 14 15 16 17 17 17 16 15 16 16 16 16 15 16 16 16 16 15 15 13 13 12 12 12 11 10 10 11 11 12
8 5 5 7 9 10 7 7 3 8 6 8 3 2 5 4 5 2 3 1 1 2 3 4 7 7 10 10 12 13 14 14 14 14 15 16 16 15 15 15 14 14 15 15 15 16 16 16 15 15 15 15 14 12 12 12 12 11 11 10 10 9 10
6 7 7 9 10 10 11 7 9 2 6 4 5 5 3 4 5 2 6 3 4 5 6 5 4 1 9 9 12 13 15 15 14 14 15 15 14 13 14 14 14 14 15 16 16 15 16 16 15 15 15 14 16 13 11 10 10 10 9 9 9 9 10
5 9 9 10 8 10 11 10 7 6 6 3 4 1 5 4 4 6 3 4 5 8 7 6 6 0 5 11 11 11 13 14 14 14 14 13 14 13 13 14 14 15 15 15 15 15 14 14 13 13 13 13 13 12 11 11 11 11 10 10 9 9 8
9 10 11 15 9 8 12 10 10 9 8 5 7 7 6 9 7 2 3 2 2 9 6 6 5 5 4 6 10 12 12 14 12 12 13 13 13 13 14 14 14 13 14 14 14 14 13 13 13 13 12 11 11 11 9 10 9 9 10 9 9 9 8
7 9 7 2 2 6 7 5 11 12 10 13 7 6 7 7 9 6 6 4 2 2 5 5 4 4 3 3 4 9 10 12 12 11 13 13 13 13 13 13 12 12 12 12 13 13 13 13 12 11 11 10 9 9 9 9 9 10 9 9 8 8 7
8 9 4 7 6 7 9 8 8 4 6 6 7 5 6 8 8 8 7 7 6 1 2 4 3 2 3 1 1 5 10 9 11 12 12 12 11 11 12 11 10 10 11 11 11 12 12 11 10 10 9 8 9 8 8 8 9 9 8 7 7 7 7
8 10 10 9 6 7 8 8 10 12 10 9 9 9 5 5 9 11 6 6 7 4 3 1 3 6 5 3 2 3 8 9 11 11 10 9 10 10 11 11 10 10 10 11 10 10 9 9 9 8 8 8 8 7 8 7 7 7 6 6 6 6 7
11 11 11 11 11 12 9 11 12 13 14 13 10 10 8 10 9 13 5 8 1 6 4 5 6 8 7 5 3 4 4 10 10 10 9 9 9 9 10 11 10 10 9 9 9 9 8 8 8 8 7 8 7 6 5 4 5 5 5 5 5 5 5
8 7 2 2 6 10 13 13 15 12 13 14 12 5 6 10 6 9 10 12 7 6 10 4 6 8 9 7 5 4 5 8 9 10 9 9 8 9 10 10 9 9 8 9 9 9 8 8 7 7 7 6 5 5 5 4 4 4 4 4 4 4 4
14 10 5 4 2 6 10 13 13 13 15 14 14 11 11 6 8 11 9 10 6 9 11 2 8 10 9 6 3 5 4 6 7 9 10 10 9 9 8 8 10 10 9 9 9 8 8 7 7 6 5 5 5 4 5 4 3 3 2 3 3 2 2
15 16 15 12 10 9 7 7 5 6 7 8 12 12 14 12 12 12 9 11 12 8 8 4 7 8 8 7 5 2 5 6 7 9 11 10 10 10 10 10 9 10 10 9 9 9 8 8 8 8 7 7 7 7 6 6 6 6 5 5 5 5 5
15 15 15 13 13 11 11 12 12 11 11 11 11 12 13 15 13 12 15 11 15 9 5 5 7 5 7 6 3 4 4 7 8 9 9 10 10 11 11 11 10 10 10 10 9 9 9 9 9 9 8 8 8 8 8 7 7 7 7 8 8 8 8
12 14 13 11 11 10 12 13 13 13 11 11 11 12 13 13 15 14 18 19 17 10 4 3 4 3 4 5 5 4 4 5 8 9 10 10 11 11 11 12 11 11 11 11 11 10 10 10 10 10 9 9 9 9 9 9 9 8 8 9 9 9 8
10 12 12 11 11 12 14 14 14 13 12 12 11 12 11 13 13 16 16 13 12 6 4 5 4 3 5 6 4 5 4 7 9 9 10 11 12 12 12 12 12 12 12 12 12 12 12 11 11 11 10 10 10 10 9 9 9 9 10 10 10 10 9
10 8 9 12 12 11 12 13 13 14 13 11 8 8 9 12 12 13 13 12 13 3 3 3 4 4 4 4 4 4 5 6 9 10 10 11 12 13 13 13 13 13 12 12 13 13 12 11 11 11 11 11 11 10 11 11 10 11 11 11 11 11 10
9 8 7 7 10 12 10 3 5 9 11 9 11 9 10 11 11 10 9 6 1 3 2 2 4 2 2 2 1 2 3 7 9 11 13 12 12 13 12 13 14 13 12 11 11 12 13 13 13 12 12 13 13 12 12 11 12 12 12 12 11 11 10
9 6 6 9 13 10 5 4 3 1 0 1 7 7 6 6 10 13 10 7 4 1 2 1 4 5 5 2 2 2 3 5 8 11 13 14 14 14 14 15 14 13 14 15 15 15 14 14 14 14 13 13 14 13 13 13 12 12 11 11 10 9 9
5 7 9 11 10 5 5 4 3 3 3 3 4 9 11 10 9 10 12 10 3 1 1 4 6 7 8 6 4 2 2 3 7 11 12 15 15 14 13 15 15 15 15 16 16 15 14 14 13 13 14 14 14 13 11 12 11 11 11 10 10 9 9
8 9 10 10 4 5 7 5 6 6 4 6 8 7 8 8 7 9 10 7 4 4 4 5 7 9 8 7 5 3 3 2 4 9 12 13 16 15 14 14 16 15 15 16 16 15 14 14 14 14 13 13 13 13 12 11 11 10 10 10 9 9 8
7 8 10 11 8 10 9 4 5 3 2 3 1 2 2 5 6 11 10 8 6 5 7 7 8 8 5 3 5 4 5 4 4 6 11 12 14 17 17 15 16 16 16 16 16 16 17 16 15 13 13 13 13 12 12 11 10 10 10 9 8 8 8
6 8 10 9 10 7 4 7 5 4 0 3 3 6 6 2 5 6 4 4 2 3 6 8 7 4 2 2 5 5 8 7 9 10 10 13 14 16 16 17 18 18 17 18 18 18 17 17 15 14 14 14 13 12 11 10 10 10 9 8 8 7 7
3 8 9 10 8 2 7 8 7 5 5 6 7 7 5 3 2 3 3 2 2 1 1 4 3 1 4 6 7 8 11 10 10 12 12 13 15 16 17 16 17 18 19 19 18 18 17 16 15 14 13 13 13 12 11 10 10 10 9 8 7 7 6
7 8 8 8 5 6 4 5 6 5 6 6 9 9 4 4 3 5 4 3 2 1 3 1 1 7 6 8 11 12 13 14 12 13 13 14 15 16 16 15 15 15 16 17 18 18 15 15 14 13 12 12 12 11 10 10 10 9 8 7 6 6 6
7 8 10 8 3 4 2 3 4 6 6 5 5 4 1 3 3 3 2 2 3 4 4 4 5 8 12 13 13 15 14 14 14 14 14 14 15 15 16 15 13 13 15 16 17 16 14 14 13 12 12 12 11 10 10 10 9 8 7 7 6 6 6
8 7 8 6 5 4 2 7 5 1 5 3 1 1 2 2 2 1 2 0 4 5 7 7 9 10 11 14 15 16 15 15 15 15 14 14 14 14 13 12 12 13 14 14 14 14 13 13 12 12 13 13 11 10 10 10 8 8 7 7 7 7 6
7 6 9 4 2 1 6 8 3 3 3 2 3 4 2 2 0 2 3 3 3 5 7 9 10 11 14 14 18 17 16 16 16 16 14 13 13 13 14 13 12 12 12 13 12 12 11 11 11 11 11 11 10 11 11 8 8 8 7 7 7 7 7
7 4 2 1 4 5 3 4 1 3 3 2 2 2 2 2 3 0 3 5 6 6 10 12 12 11 12 15 17 18 18 17 18 18 16 14 13 13 12 11 9 9 10 12 13 12 11 11 10 10 9 11 12 11 9 8 8 8 7 7 6 7 7
2 6 3 1 3 2 2 3 2 4 3 2 2 2 2 2 0 0 4 7 8 11 12 13 12 12 14 15 16 17 18 18 20 19 17 14 13 13 12 11 10 9 10 11 12 13 11 11 10 9 9 10 11 10 9 8 8 7 7 7 7 7 7
3 3 3 1 0 0 1 3 2 2 1 3 3 1 1 1 2 4 7 9 12 13 13 15 16 17 17 17 16 15 14 16 18 19 18 16 15 15 15 14 13 11 11 10 10 11 11 9 9 9 10 9 9 8 8 7 8 7 7 7 8 7 7
7 1 3 5 3 3 5 4 4 3 3 3 2 2 1 0 3 6 9 10 12 12 13 16 18 19 20 21 20 18 15 14 14 15 17 17 16 15 16 15 14 14 12 12 11 10 10 8 8 8 8 8 8 8 8 8 8 8 7 7 7 7 7
5 3 4 9 1 5 4 5 6 5 5 5 3 3 1 4 6 8 9 9 11 11 14 16 18 19 18 19 20 20 18 17 15 14 14 12 12 11 11 11 11 11 12 12 12 10 9 8 8 8 9 8 8 8 7 7 7 7 7 7 8 8 7
6 2 4 10 2 3 3 6 9 8 6 4 3 1 4 5 7 9 11 11 11 11 13 13 15 18 18 19 20 21 16 13 13 14 14 13 13 11 10 10 11 13 13 13 12 10 8 8 8 8 8 8 7 7 7 7 7 7 7 7 7 8 7
1 7 7 7 5 5 3 7 10 10 8 5 2 1 4 7 8 9 11 13 13 13 12 11 13 13 15 17 17 19 19 19 16 14 15 15 13 12 12 13 13 12 12 11 11 10 8 8 8 9 8 8 7 7 7 7 6 7 7 6 6 6 7
4 9 9 8 6 5 6 8 8 9 8 7 5 1 3 7 9 10 11 13 13 11 11 9 9 10 13 14 15 16 16 15 16 16 13 13 13 13 11 12 13 13 12 11 10 10 8 8 9 9 8 8 8 7 7 7 6 6 6 6 7 7 9
5 7 8 10 8 7 6 6 4 7 7 7 8 2 4 7 9 10 12 12 11 12 10 9 9 10 13 13 13 13 14 14 12 13 13 13 13 12 13 13 13 13 11 10 9 8 8 9 9 9 9 8 7 7 7 6 6 7 7 7 8 8 9
Wind_Direction
210 218 204 206 228 236 168 207 220 212 143 251 271 260 213 278 246 275 13 239 174 144 172 119 127 153 147 158 164 170 167 171 172 181 183 189 191 193 194 193 194 194 195 195 199 201 204 207 209 213 217 215 210 209 206 206 208 206 210 205 211 215 219
206 240 245 244 206 250 215 241 175 105 168 296 285 299 343 265 241 232 257 299 68 247 132 159 137 149 144 154 165 166 162 170 175 182 184 186 190 191 192 194 192 193 197 195 199 203 205 208 211 212 213 218 211 212 208 209 207 209 207 208 218 219 219
154 169 214 219 233 240 231 194 48 223 152 205 165 261 261 330 271 117 209 48 241 252 115 187 159 169 150 160 164 166 168 174 179 181 183 183 188 188 189 193 190 193 196 198 200 203 204 207 210 212 209 211 216 209 210 210 213 212 206 206 216 226 225
146 205 207 223 188 194 248 291 244 244 294 142 197 220 299 204 296 279 135 222 122 161 45 355 29 346 142 162 171 180 175 177 179 179 179 179 181 184 187 190 192 192 194 199 198 202 204 204 205 210 210 206 214 209 200 201 210 209 201 205 207 215 222
169 218 191 225 205 190 198 212 243 205 223 38 310 322 237 218 212 249 309 182 135 68 21 352 339 286 164 169 189 179 179 179 180 174 175 170 175 179 183 188 189 191 193 196 197 198 203 207 205 208 214 211 211 205 192 194 202 207 203 204 204 210 214
201 228 184 220 241 223 205 212 225 208 223 202 200 228 232 256 270 13 242 269 17 73 39 12 354 333 305 188 183 183 183 177 174 166 165 159 169 175 180 186 185 189 189 193 194 194 198 203 206 204 211 211 210 207 187 192 198 201 205 202 202 205 207
211 209 115 242 284 320 309 252 217 224 186 221 227 218 215 225 253 258 276 296 81 17 57 24 1 342 286 268 211 169 203 171 162 157 153 158 165 173 177 182 181 183 181 189 186 186 190 195 199 197 199 201 204 198 184 185 190 197 201 202 197 199 206
267 271 226 210 247 289 263 236 274 285 239 238 252 235 224 243 211 207 207 225 115 150 98 32 24 327 327 257 40 171 179 166 151 154 148 152 160 171 176 175 173 173 171 182 172 176 181 185 184 187 186 184 193 192 193 191 196 198 198 199 197 200 208
230 234 217 226 208 234 232 238 214 223 243 245 250 264 349 262 257 268 284 209 147 132 90 115 94 41 34 5 126 201 163 148 147 142 141 146 152 156 166 161 159 160 166 169 158 168 169 169 172 172 165 176 186 188 190 191 192 194 194 191 193 196 204
203 199 198 204 197 207 213 223 229 222 229 235 235 230 194 242 229 257 261 288 316 131 225 349 37 34 69 65 72 151 173 157 143 144 141 143 146 152 153 149 145 153 150 146 149 155 158 160 160 161 163 168 176 177 176 172 168 170 176 181 187 193 203
225 204 130 46 243 197 214 205 221 223 236 245 243 254 260 244 242 242 223 226 284 328 293 357 13 37 28 49 80 135 158 142 133 132 140 145 147 151 150 148 144 138 138 141 139 139 145 148 146 154 157 150 152 148 144 134 137 154 159 169 171 186 196
252 273 249 160 268 270 209 217 210 216 229 233 231 208 228 251 252 244 253 236 238 246 259 336 23 20 17 35 51 127 134 131 143 141 138 139 141 146 145 143 142 143 142 138 136 136 133 129 129 123 122 128 129 132 126 113 119 122 120 132 132 135 132
242 249 256 256 239 247 273 260 253 239 235 227 235 226 231 199 222 243 265 272 251 223 268 354 46 22 7 32 46 68 123 135 133 141 144 151 150 149 151 147 145 145 142 138 135 131 127 128 126 120 113 108 103 98 93 94 94 88 95 103 101 97 93
229 234 238 240 246 244 248 247 248 249 243 243 240 241 235 225 220 232 242 251 265 268 270 354 34 25 22 45 66 113 159 145 144 148 151 151 149 152 151 148 146 145 140 135 132 130 131 128 121 115 110 108 106 102 97 94 91 93 97 94 95 93 90
235 237 239 244 245 250 254 251 250 248 247 248 247 249 241 239 233 227 239 236 258 251 245 69 60 27 52 74 67 74 101 145 151 154 149 144 145 144 140 141 142 139 136 135 132 130 126 121 117 111 109 107 103 98 97 95 94 97 99 99 97 95 95
230 225 233 227 234 238 249 252 250 247 243 242 234 235 232 234 224 225 232 240 247 256 146 147 126 80 46 53 93 122 155 164 154 153 147 148 148 146 143 142 139 137 135 134 130 125 121 118 116 114 111 108 104 101 101 101 104 107 102 102 99 97 95
232 201 206 221 224 235 239 239 241 239 240 247 248 240 240 239 238 225 223 234 251 256 163 180 108 48 54 65 43 111 136 159 161 152 153 152 153 147 144 140 138 135 131 127 123 120 118 117 115 115 114 111 109 111 109 110 113 111 107 106 106 104 102
225 183 216 215 221 224 229 231 234 237 240 225 234 230 220 224 222 235 225 220 84 35 340 315 91 105 52 360 353 349 144 163 165 158 148 148 144 143 142 137 132 127 124 122 120 119 119 118 115 115 113 110 111 111 113 114 112 111 110 108 107 106 102
218 186 200 213 222 227 110 114 102 124 191 257 253 265 269 238 218 228 228 156 225 159 222 84 84 108 119 129 120 186 164 168 167 158 145 142 145 143 141 137 135 131 128 124 122 121 121 120 119 116 112 115 118 116 116 112 109 107 103 102 99 97 92
219 213 210 227 220 126 145 126 123 104 166 193 227 239 239 238 236 236 242 236 145 151 123 125 125 127 125 116 104 111 125 183 172 157 152 145 142 145 147 140 133 134 133 131 128 124 125 124 120 119 120 121 116 111 105 102 102 99 99 96 94 91 88
235 224 214 225 105 192 160 168 194 186 193 199 213 232 207 228 247 251 256 249 231 159 143 140 146 141 148 125 96 88 116 128 185 168 154 148 142 137 136 134 133 130 130 127 126 126 124 120 118 117 118 115 111 108 104 101 99 98 96 93 91 89 86
242 241 222 218 215 226 181 172 103 81 66 3 46 265 161 262 236 251 243 240 236 171 153 162 145 162 178 194 110 124 124 118 115 125 132 135 132 132 133 131 127 128 127 126 127 124 120 115 114 114 114 112 109 105 103 103 102 100 96 93 92 88 84
245 238 236 221 225 228 151 139 125 115 140 203 181 234 192 190 273 204 240 245 228 232 169 153 169 169 249 99 113 134 121 115 118 117 124 130 129 126 130 133 132 131 131 127 124 120 117 114 115 115 114 111 107 106 108 107 104 99 96 95 93 89 85
217 267 246 227 217 194 125 146 146 156 195 196 189 221 193 181 184 351 328 313 293 255 120 149 206 249 248 145 130 134 115 116 121 125 127 124 124 124 125 127 128 124 123 123 120 118 116 116 118 116 114 108 106 109 109 106 101 98 97 97 95 94 93
200 232 267 265 206 105 138 124 138 139 172 202 204 216 68 6 35 14 358 358 75 147 122 12 55 43 48 94 116 114 112 116 116 116 118 119 120 120 120 118 123 126 125 121 119 118 117 119 117 113 110 109 108 107 107 103 100 101 104 105 104 97 92
246 220 236 242 283 22 14 115 119 157 169 195 210 15 314 312 57 56 336 22 97 137 137 117 67 82 95 104 107 107 110 110 109 110 113 119 112 111 114 122 126 117 112 111 112 112 113 113 113 113 112 109 110 109 106 105 109 111 111 106 101 99 95
237 235 241 239 227 123 211 131 135 248 256 103 120 189 139 1 70 55 114 52 116 143 126 112 113 109 108 112 108 107 110 112 112 112 113 111 110 108 110 106 104 111 111 112 111 113 114 113 112 113 113 111 111 112 109 111 113 110 106 102 102 99 94
241 202 233 243 350 336 194 208 248 153 13 11 359 355 78 84 83 105 116 98 119 135 126 121 116 115 118 118 115 112 112 113 110 108 110 106 105 108 106 106 107 104 106 108 106 101 101 104 106 110 114 115 113 111 108 109 105 104 103 105 104 100 93
242 273 302 116 293 326 281 261 347 300 346 335 9 349 306 288 112 94 110 113 126 133 125 117 117 120 126 127 124 120 121 119 117 115 111 110 106 101 98 94 92 98 104 106 105 102 103 106 106 108 109 112 113 107 107 108 106 105 106 105 100 95 95
193 233 200 264 264 281 305 234 291 307 332 355 320 329 313 81 20 164 120 137 130 131 134 129 127 130 134 132 128 119 123 124 121 120 118 114 111 108 105 102 100 101 99 100 104 107 105 103 103 105 108 109 109 110 111 111 110 108 108 106 102 102 105
265 222 59 270 30 160 10 2 25 36 10 333 324 12 342 76 171 128 125 138 140 140 142 137 136 141 142 135 129 122 123 128 130 129 129 131 135 133 130 131 132 126 119 114 111 109 105 101 101 103 103 101 103 111 113 109 105 108 106 105 108 111 111
253 99 74 3 301 80 44 14 9 12 25 1 353 21 26 96 156 138 139 142 143 146 147 143 145 148 149 143 140 138 136 134 135 136 140 144 145 144 142 143 139 132 131 128 122 115 107 107 107 106 104 104 105 105 106 107 109 109 109 110 112 113 116
217 151 30 2 102 106 101 68 40 4 344 338 3 29 131 160 152 142 146 147 142 152 148 153 149 151 154 148 145 144 146 148 146 140 132 129 127 131 136 134 132 128 128 122 119 116 119 121 116 110 104 103 104 105 106 108 109 107 106 110 111 117 119
240 278 28 354 303 165 45 26 18 1 351 331 351 127 141 150 148 152 142 139 143 143 151 159 159 154 156 154 149 142 143 144 137 134 132 132 136 139 137 132 124 119 117 120 123 127 127 126 118 111 104 97 92 92 98 103 108 112 115 117 120 123 123
48 44 19 12 311 278 295 360 357 348 343 329 335 53 150 149 155 155 144 135 134 140 148 168 170 158 153 155 150 145 147 146 145 145 141 143 144 140 135 125 120 117 120 125 131 134 133 128 121 115 109 103 97 93 96 99 108 114 119 123 122 120 120
63 18 4 344 332 299 316 328 347 349 347 329 324 60 148 153 156 162 149 139 135 131 134 140 153 150 149 148 148 141 135 137 139 141 142 140 136 133 128 123 124 127 131 137 140 137 136 129 121 113 105 99 97 102 102 105 107 112 121 125 128 128 123
0 348 333 323 305 297 303 316 344 9 345 333 330 47 135 151 165 167 149 143 142 140 143 136 129 146 145 146 133 129 127 129 131 134 134 134 137 135 131 130 134 139 141 142 139 138 134 127 116 107 100 97 101 101 107 113 118 123 127 129 124 119 122